STARLINK-32926, 63025

Orbit data source: Space-Track

STARLINK-32926, 63025 is a payload satellite owned by SpaceX/Seattle (US) in LEO that was launched on Sat, 15 Feb 2025 UTC via an FALCON 9 launch vehicle from the Air Force Eastern Test Range (AFETR). Payload-class satellites include a variety of spacecraft equipped with specific instruments for various scientific and technological missions. These include communications satellites like Starlink; space stations such as the ISS; scientific satellites like the Hubble; Earth observation satellites from companies like Planet Labs, Umbra, and HawkEye 360; GPS; miniature CubeSats for education and research; and military/defense satellites.

Loading next visibility...
Identifier
63025, 2025-032W
Orbit
LEO
Country
Flag of USUS
Related business
Manufacturer
SpaceX/Seattle
Mission
Operational Commercial Communications
Bus & Motor
STARLINK V2M, Unknown motor
Mass
730 kg wet, ~700 kg dry
Launch date (UTC)
2025-02-15 (8 months ago)
Launch vehicle
FALCON 9
Launch site
Air Force Eastern Test Range (AFETR)
Object type
Payload
Rocket body
Debris
Shape & HBR
Box + 2 Pan, 17.7 m
Radar Cross Section
33.884 m², Large (>1 m²)

Expand to show TLE details & history
Last TLE update: 19 hours ago

TLE from 19 hours ago
0 STARLINK-32926
1 63025U 25032W   25301.61008043  .00028467  00000-0  10388-2 0  9990
2 63025  43.0005   1.6601 0001643 278.5401  81.5264 15.27616303 40425
Epoch: 2025-10-28T14:38Z
TLE epoch observation values (Epoch: 2025-10-28T14:38:30.949Z)
Latitude
-0.00003°
Longitude
104.83601°
Altitude
482.55 km
Speed
7.626 km/s
True Right ascension
00h 06m 38s
True Declination
0° 00' 00"
Sunlit
Object was in full shadow at epoch
Visualization orbit readout
Latitude
Unknown
Longitude
Unknown
Altitude
Unknown
Speed
Unknown
Apparent Right ascension
Unknown
Apparent Declination
Unknown
Sunlit
N/A
Visualization observer readout
Local Sidereal Time
05:25:34
Azimuth
Unknown
Elevation
Unknown
Doppler factor
Unknown
Orbital elements
Apogee altitude
486.013 km
Perigee altitude
483.758 km
Semi-major axis
6,863.023 km
Eccentricity
0.00016
Inclination
43.0005°
RAAN
1.6601°
Arg. of periapsis
278.5401°
True anomaly
81.54502°
Mean anomaly
81.5264°
Eccentric anomaly
81.53571°
Mean motion
3.81742 °/min
Orbital period
94.3 mins
BSTAR
0.0010388
Loading maneuver chart data...
Computing Atmospheric mass density...
Loading historical data...
Loading historical data...
Loading historical data...
Loading historical data...
Loading historical data...
Loading historical data...
Loading historical data...

Documentation

Showing up to 5 results
|